Time,TemperatureF,DewpointF,PressureIn,WindDirection,WindDirectionDegrees,WindSpeedMPH,WindSpeedGustMPH,Humidity,HourlyPrecipIn,Conditions,Clouds,dailyrainin,SoftwareType,DateUTC
2013-03-10 00:21:00,9.0,-99.9,-100.00,North,-999,-999.0,-999.0,-999,0.00,,,0.01,,2013-03-10 07:21:00,
2013-03-10 00:32:00,9.0,-99.9,-100.00,North,-999,-999.0,-999.0,-999,0.00,,,0.01,,2013-03-10 07:32:00,
2013-03-10 00:42:00,9.0,-99.9,-100.00,North,-999,-999.0,-999.0,-999,0.00,,,0.01,,2013-03-10 07:42:00,
2013-03-10 01:21:00,7.0,-99.9,-100.00,North,-999,-999.0,-999.0,-999,0.00,,,0.01,,2013-03-10 08:21:00,
2013-03-10 01:32:00,7.0,-99.9,-100.00,North,-999,-999.0,-999.0,-999,0.00,,,0.01,,2013-03-10 08:32:00,
2013-03-10 01:42:00,7.0,-99.9,-100.00,North,-999,-999.0,-999.0,-999,0.00,,,0.01,,2013-03-10 08:42:00,
2013-03-10 03:21:00,5.0,-99.9,-100.00,North,-999,-999.0,-999.0,-999,0.00,,,0.00,,2013-03-10 09:21:00,
2013-03-10 03:32:00,5.0,-99.9,-100.00,North,-999,-999.0,-999.0,-999,0.00,,,0.00,,2013-03-10 09:32:00,
2013-03-10 03:42:00,5.0,-99.9,-100.00,North,-999,-999.0,-999.0,-999,0.00,,,0.00,,2013-03-10 09:42:00,
2013-03-10 04:32:00,6.0,-99.9,-100.00,North,-999,-999.0,-999.0,-999,0.00,,,0.01,,2013-03-10 10:32:00,
2013-03-10 04:42:00,6.0,-99.9,-100.00,North,-999,-999.0,-999.0,-999,0.00,,,0.01,,2013-03-10 10:42:00,
2013-03-10 05:22:00,5.0,-99.9,-100.00,North,-999,-999.0,-999.0,-999,0.00,,,0.00,,2013-03-10 11:22:00,
2013-03-10 05:32:00,5.0,-99.9,-100.00,North,-999,-999.0,-999.0,-999,0.00,,,0.00,,2013-03-10 11:32:00,
2013-03-10 05:42:00,5.0,-99.9,-100.00,North,-999,-999.0,-999.0,-999,0.00,,,0.00,,2013-03-10 11:42:00,
2013-03-10 06:22:00,5.0,-99.9,-100.00,North,-999,-999.0,-999.0,-999,0.02,,,0.01,,2013-03-10 12:22:00,
2013-03-10 06:32:00,5.0,-99.9,-100.00,North,-999,-999.0,-999.0,-999,0.02,,,0.01,,2013-03-10 12:32:00,
2013-03-10 06:42:00,5.0,-99.9,-100.00,North,-999,-999.0,-999.0,-999,0.02,,,0.01,,2013-03-10 12:42:00,
2013-03-10 07:21:00,4.0,-99.9,-100.00,North,-999,-999.0,-999.0,-999,-99.99,,,0.01,,2013-03-10 13:21:00,
2013-03-10 07:32:00,4.0,-99.9,-100.00,North,-999,-999.0,-999.0,-999,-99.99,,,0.01,,2013-03-10 13:32:00,
2013-03-10 07:42:00,4.0,-99.9,-100.00,North,-999,-999.0,-999.0,-999,-99.99,,,0.01,,2013-03-10 13:42:00,
2013-03-10 08:22:00,5.0,-99.9,-100.00,North,-999,-999.0,-999.0,-999,0.00,,,0.01,,2013-03-10 14:22:00,
2013-03-10 08:32:00,5.0,-99.9,-100.00,North,-999,-999.0,-999.0,-999,0.00,,,0.01,,2013-03-10 14:32:00,
2013-03-10 08:42:00,5.0,-99.9,-100.00,North,-999,-999.0,-999.0,-999,0.00,,,0.01,,2013-03-10 14:42:00,
2013-03-10 09:22:00,3.0,-99.9,-100.00,North,-999,-999.0,-999.0,-999,0.00,,,0.01,,2013-03-10 15:22:00,
2013-03-10 09:32:00,3.0,-99.9,-100.00,North,-999,-999.0,-999.0,-999,0.00,,,0.01,,2013-03-10 15:32:00,
2013-03-10 09:42:00,3.0,-99.9,-100.00,North,-999,-999.0,-999.0,-999,0.00,,,0.01,,2013-03-10 15:42:00,
2013-03-10 10:22:00,9.0,-99.9,-100.00,North,-999,-999.0,-999.0,-999,0.01,,,0.01,,2013-03-10 16:22:00,
2013-03-10 10:32:00,9.0,-99.9,-100.00,North,-999,-999.0,-999.0,-999,0.01,,,0.01,,2013-03-10 16:32:00,
2013-03-10 10:42:00,9.0,-99.9,-100.00,North,-999,-999.0,-999.0,-999,0.01,,,0.01,,2013-03-10 16:42:00,
2013-03-10 12:22:00,27.0,-99.9,-100.00,North,-999,-999.0,-999.0,-999,-99.99,,,0.01,,2013-03-10 18:22:00,
2013-03-10 12:32:00,27.0,-99.9,-100.00,North,-999,-999.0,-999.0,-999,-99.99,,,0.01,,2013-03-10 18:32:00,
2013-03-10 12:42:00,27.0,-99.9,-100.00,North,-999,-999.0,-999.0,-999,-99.99,,,0.01,,2013-03-10 18:42:00,
2013-03-10 13:22:00,43.0,-99.9,-100.00,North,-999,-999.0,-999.0,-999,0.00,,,0.01,,2013-03-10 19:22:00,
2013-03-10 14:22:00,42.0,-99.9,-100.00,North,-999,-999.0,-999.0,-999,-99.99,,,0.00,,2013-03-10 20:22:00,
2013-03-10 14:33:00,42.0,-99.9,-100.00,North,-999,-999.0,-999.0,-999,-99.99,,,0.00,,2013-03-10 20:33:00,
2013-03-10 14:43:00,42.0,-99.9,-100.00,North,-999,-999.0,-999.0,-999,-99.99,,,0.00,,2013-03-10 20:43:00,
2013-03-10 15:23:00,52.0,-99.9,-100.00,North,-999,-999.0,-999.0,-999,0.00,,,0.00,,2013-03-10 21:23:00,
2013-03-10 16:23:00,47.0,-99.9,-100.00,North,-999,-999.0,-999.0,-999,-99.99,,,0.00,,2013-03-10 22:23:00,
2013-03-10 16:33:00,47.0,-99.9,-100.00,North,-999,-999.0,-999.0,-999,-99.99,,,0.00,,2013-03-10 22:33:00,
2013-03-10 17:23:00,44.0,-99.9,-100.00,North,-999,-999.0,-999.0,-999,-99.99,,,0.00,,2013-03-10 23:23:00,
2013-03-10 17:33:00,44.0,-99.9,-100.00,North,-999,-999.0,-999.0,-999,-99.99,,,0.00,,2013-03-10 23:33:00,
2013-03-10 18:23:00,35.0,-99.9,-100.00,North,-999,-999.0,-999.0,-999,-99.99,,,0.00,,2013-03-11 00:23:00,
2013-03-10 18:34:00,35.0,-99.9,-100.00,North,-999,-999.0,-999.0,-999,-99.99,,,0.00,,2013-03-11 00:34:00,
2013-03-10 18:43:00,35.0,-99.9,-100.00,North,-999,-999.0,-999.0,-999,-99.99,,,0.00,,2013-03-11 00:43:00,
2013-03-10 19:23:00,29.0,-99.9,-100.00,North,-999,-999.0,-999.0,-999,0.00,,,0.00,,2013-03-11 01:23:00,
2013-03-10 19:33:00,29.0,-99.9,-100.00,North,-999,-999.0,-999.0,-999,0.00,,,0.00,,2013-03-11 01:33:00,
2013-03-10 19:43:00,29.0,-99.9,-100.00,North,-999,-999.0,-999.0,-999,0.00,,,0.00,,2013-03-11 01:43:00,
2013-03-10 20:23:00,27.0,-99.9,-100.00,North,-999,-999.0,-999.0,-999,0.01,,,0.01,,2013-03-11 02:23:00,
2013-03-10 20:33:00,27.0,-99.9,-100.00,North,-999,-999.0,-999.0,-999,0.01,,,0.01,,2013-03-11 02:33:00,
2013-03-10 20:43:00,27.0,-99.9,-100.00,North,-999,-999.0,-999.0,-999,0.01,,,0.01,,2013-03-11 02:43:00,
2013-03-10 21:22:00,25.0,-99.9,-100.00,North,-999,-999.0,-999.0,-999,0.00,,,0.02,,2013-03-11 03:22:00,
2013-03-10 21:32:00,25.0,-99.9,-100.00,North,-999,-999.0,-999.0,-999,0.00,,,0.02,,2013-03-11 03:32:00,
2013-03-10 21:43:00,25.0,-99.9,-100.00,North,-999,-999.0,-999.0,-999,0.00,,,0.02,,2013-03-11 03:43:00,
2013-03-10 22:23:00,24.0,-99.9,-100.00,North,-999,-999.0,-999.0,-999,0.00,,,0.02,,2013-03-11 04:23:00,
2013-03-10 22:33:00,24.0,-99.9,-100.00,North,-999,-999.0,-999.0,-999,0.00,,,0.02,,2013-03-11 04:33:00,
2013-03-10 22:43:00,24.0,-99.9,-100.00,North,-999,-999.0,-999.0,-999,0.00,,,0.02,,2013-03-11 04:43:00,
2013-03-10 23:22:00,23.0,-99.9,-100.00,North,-999,-999.0,-999.0,-999,-99.99,,,0.01,,2013-03-11 05:22:00,
2013-03-10 23:32:00,23.0,-99.9,-100.00,North,-999,-999.0,-999.0,-999,-99.99,,,0.01,,2013-03-11 05:32:00,
2013-03-10 23:43:00,23.0,-99.9,-100.00,North,-999,-999.0,-999.0,-999,-99.99,,,0.01,,2013-03-11 05:43:00,